カタログに戻る

FENGYUN 1C DEB

運用中SSO
NORAD 31148·DEBRIS·🇨🇳 China

打ち上げ May 10, 1999 から Taiyuan Satellite Launch Center

Loading…

次のパス (今後24時間)

TLE

最新Source: Space-Track

元期: Sep 14, 2026, 03:49 UTC

1 31148U 99025BHA 26257.15967657  .00001865  00000-0  49526-3 0  9999
2 31148  98.8405 159.0736 0132537 309.5405  49.4133 14.44880966 14550

AllMySatでFENGYUN 1C DEBをリアルタイム追跡

Download on the App Store